Flag for Thailand Weather past 2 weeks in Phuket, Thailand

Now
82 °F

Partly cloudy.


Feels Like: 88 °F
Forecast: 81 / 85 °F
Wind: 15 mph from West

Location: Phuket Airport

Current Time: Sep 20, 2014 at 7:00:56 PM

Latest Report: Sep 20, 2014 at 6:30 PM


Visibility: N/A

Pressure: 29.80 "Hg

Humidity: 74%

Dew point: 73 °F

Location of PhuketLocation

Historic Weather in Phuket — Graph

°F

Phuket temperature yesterday

Maximum temperature yesterday: 88 °F (at 11:30 AM)
Minimum temperature yesterday: 77 °F (at 3:00 AM)
Average temperature yesterday: 82 °F

Past Weeks' High & Low Weather Summary

 TemperatureHumidityPressure
High90 °F (Sep 18, 12:30 PM)94% (Sep 8, 11:00 PM)29.95 "Hg (Sep 8, 11:00 PM)
Low73 °F (Sep 8, 11:00 PM)59% (Sep 18, 12:30 PM)29.71 "Hg (Sep 16, 3:00 PM)
Average81 °F79%29.84 "Hg
* Reported Sep 5 6:00 PM — Sep 20 6:00 PM, Phuket, Weather by CustomWeather, © 2014

Note: Actual official high and low records may vary slightly from our data, if they occured in-between our weather recording intervals... More about our weather records

Advertising

Phuket weather history for previous 24 hours

 ConditionsComfort  
Time TempWeatherWind HumidityBarometerVisibility
6:00 PM
Sep 20
84 °FBroken clouds.14 mph70%29.80 "HgN/A
5:30 PM86 °FBroken clouds.12 mph66%29.80 "HgN/A
5:00 PM86 °FBroken clouds.12 mph66%29.77 "HgN/A
4:30 PM86 °FPartly sunny.10 mph70%29.77 "HgN/A
4:00 PM86 °FPartly sunny.13 mph70%29.77 "HgN/A
3:30 PM88 °FPartly sunny.16 mph66%29.80 "HgN/A
3:00 PM88 °FPartly sunny.10 mph66%29.80 "HgN/A
2:30 PM88 °FPartly sunny.10 mph66%29.80 "HgN/A
2:00 PM88 °FPartly sunny.10 mph66%29.83 "HgN/A
1:30 PM88 °FPartly sunny.14 mph62%29.83 "HgN/A
1:00 PM86 °FPartly sunny.14 mph66%29.86 "HgN/A
12:30 PM86 °FPartly sunny.12 mph66%29.86 "HgN/A
12:00 PM86 °FPartly sunny.12 mph70%29.89 "HgN/A
11:30 AM86 °FPartly sunny.14 mph66%29.89 "HgN/A
11:00 AM86 °FPartly sunny.9 mph66%29.89 "HgN/A
10:30 AM86 °FPartly sunny.8 mph70%29.89 "HgN/A
10:00 AM86 °FPartly sunny.7 mph70%29.92 "HgN/A
9:30 AM86 °FPartly sunny.8 mph70%29.92 "HgN/A
9:00 AM86 °FPartly sunny.6 mph66%29.89 "HgN/A
8:00 AM84 °FPartly sunny.3 mph74%29.86 "Hg5 mi
7:30 AM79 °FPartly sunny.1 mph94%29.86 "Hg5 mi
7:00 AM77 °FPartly sunny.No wind94%29.86 "Hg5 mi
6:30 AM75 °FPartly sunny.No wind94%29.83 "Hg5 mi
6:00 AM75 °FPassing clouds.1 mph94%29.83 "Hg5 mi
4:30 AM75 °FPartly cloudy.No wind94%29.83 "Hg4 mi
4:00 AM75 °FPartly cloudy.No wind94%29.83 "Hg4 mi
3:00 AM77 °FPartly cloudy.2 mph89%29.83 "Hg4 mi
1:00 AM77 °FPartly cloudy.1 mph89%29.86 "Hg4 mi
12:00 AM77 °FPartly cloudy.2 mph89%29.89 "Hg4 mi
11:30 PM
Sep 19
81 °FPartly cloudy.2 mph79%29.89 "Hg4 mi
11:00 PM81 °FPartly cloudy.6 mph79%29.89 "Hg4 mi
10:30 PM81 °FPartly cloudy.6 mph79%29.89 "Hg4 mi
10:00 PM81 °FPartly cloudy.7 mph79%29.89 "Hg4 mi
9:30 PM82 °FPartly cloudy.7 mph74%29.89 "Hg4 mi
9:00 PM82 °FPartly cloudy.5 mph74%29.89 "Hg4 mi
8:30 PM82 °FPartly cloudy.5 mph74%29.89 "Hg4 mi
8:00 PM81 °FPartly cloudy.2 mph79%29.86 "Hg4 mi
7:30 PM81 °FPartly cloudy.5 mph79%29.86 "Hg4 mi
7:00 PM82 °FPartly cloudy.6 mph74%29.83 "Hg4 mi
Weather by CustomWeather, © 2014

See weather overviewHow to use our weather pages